Powrót do katalogu

COSMOS 2251 DEB

AktywnyLEO
NORAD 33938·DEBRIS·🇷🇺 Russia

Wystrzelony Jun 16, 1993 z Plesetsk Cosmodrome

Loading…

Następne Przeloty (najbliższe 24 godziny)

TLE

ŚwieżeSource: Space-Track

Epoka: Sep 14, 2026, 11:09 UTC

1 33938U 93036ET  26257.46521142  .00000960  00000-0  26751-3 0  9993
2 33938  74.0445  51.9758 0015718  66.8337 313.1244 14.47603441923895

Śledź COSMOS 2251 DEB w czasie rzeczywistym z AllMySat

Download on the App Store